When you browse on this site, cookies collect data to enhance your experience and personalize the content and advertising you see.
Visit our Privacy Policy to learn more. By continuing to use the site, you agree to this use of cookies and data.
  • In Hungary
  • List of Countries
  • For 7 days
  • Water Temperature
  • Weather Map
  • News
  • Weather Widgets
  • user-avatar
    Login

    Hourly Weather Vratsa

    Today, 21 February, Friday

    Time Temperature Precipitation Wind Pressure Humidity
    00:00 +1°C° 0.2 mm 2 mps 710 mmHg 91%
    01:00 +1°C° 0.2 mm 2 mps 711 mmHg 92%
    02:00 +1°C° 0 mm 2 mps 711 mmHg 93%
    03:00 +1°C° 0.3 mm 2 mps 711 mmHg 93%
    04:00 +1°C° 0.3 mm 2 mps 711 mmHg 94%
    05:00 +1°C° 0.3 mm 2 mps 711 mmHg 94%
    06:00 +1°C° 0.3 mm 2 mps 711 mmHg 94%
    07:00 +2°C° 0.3 mm 1 mps 711 mmHg 94%
    08:00 +2°C° 0.3 mm 1 mps 712 mmHg 94%
    15:00 +6°C° 0 mm 1 mps 711 mmHg 69%
    16:00 +6°C° 0 mm 1 mps 711 mmHg 68%
    17:00 +5°C° 0 mm 2 mps 711 mmHg 67%
    18:00 +4°C° 0 mm 2 mps 711 mmHg 70%
    19:00 +3°C° 0 mm 2 mps 712 mmHg 72%
    20:00 +3°C° 0 mm 2 mps 712 mmHg 75%
    21:00 +3°C° 0 mm 2 mps 712 mmHg 74%
    22:00 +1°C° 0 mm 3 mps 712 mmHg 73%
    23:00 0°C° 0 mm 4 mps 712 mmHg 72%

    Tomorrow, 22 February, Saturday

    Time Temperature Precipitation Wind Pressure Humidity
    00:00 +1°C° 0 mm 3 mps 712 mmHg 73%
    01:00 0°C° 0 mm 3 mps 712 mmHg 74%
    02:00 0°C° 0 mm 3 mps 712 mmHg 75%
    03:00 0°C° 0 mm 3 mps 712 mmHg 76%
    04:00 -1°C° 0 mm 2 mps 712 mmHg 78%
    05:00 -1°C° 0 mm 2 mps 712 mmHg 80%
    06:00 -1°C° 0.3 mm 2 mps 712 mmHg 83%
    07:00 -1°C° 0.3 mm 3 mps 713 mmHg 85%
    08:00 -1°C° 0.3 mm 3 mps 713 mmHg 87%
    09:00 0°C° 0.1 mm 3 mps 714 mmHg 84%
    10:00 +1°C° 0.1 mm 3 mps 715 mmHg 80%
    11:00 +1°C° 0.1 mm 3 mps 715 mmHg 77%
    12:00 +2°C° 0 mm 3 mps 715 mmHg 74%
    13:00 +3°C° 0 mm 3 mps 716 mmHg 71%
    14:00 +5°C° 0 mm 2 mps 716 mmHg 67%
    15:00 +5°C° 0 mm 2 mps 716 mmHg 67%
    16:00 +5°C° 0 mm 2 mps 715 mmHg 66%
    17:00 +6°C° 0 mm 1 mps 715 mmHg 66%
    18:00 +5°C° 0 mm 1 mps 715 mmHg 69%
    19:00 +4°C° 0 mm 1 mps 716 mmHg 73%
    20:00 +3°C° 0 mm 1 mps 716 mmHg 77%
    21:00 +3°C° 0 mm 1 mps 716 mmHg 77%
    22:00 +2°C° 0 mm 1 mps 716 mmHg 78%
    23:00 +2°C° 0 mm 1 mps 716 mmHg 79%

    Day after tomorrow, 23 February, Sunday

    Time Temperature Precipitation Wind Pressure Humidity
    00:00 +2°C° 0 mm 1 mps 716 mmHg 79%
    01:00 -1°C° 0 mm 2 mps 715 mmHg 79%
    02:00 -1°C° 0 mm 2 mps 715 mmHg 79%
    03:00 -1°C° 0 mm 2 mps 715 mmHg 77%
    04:00 -1°C° 0 mm 2 mps 714 mmHg 75%
    05:00 -1°C° 0 mm 2 mps 714 mmHg 73%
    06:00 -1°C° 0 mm 2 mps 714 mmHg 70%
    07:00 +1°C° 0 mm 2 mps 714 mmHg 66%
    08:00 +1°C° 0 mm 2 mps 714 mmHg 63%
    09:00 +3°C° 0 mm 2 mps 714 mmHg 58%
    10:00 +6°C° 0 mm 2 mps 714 mmHg 54%
    11:00 +8°C° 0 mm 2 mps 714 mmHg 49%
    12:00 +9°C° 0 mm 3 mps 714 mmHg 49%
    13:00 +11°C° 0 mm 3 mps 713 mmHg 48%
    14:00 +12°C° 0 mm 4 mps 713 mmHg 48%
    15:00 +11°C° 0 mm 4 mps 712 mmHg 52%
    16:00 +11°C° 0 mm 3 mps 712 mmHg 57%
    17:00 +10°C° 0 mm 2 mps 711 mmHg 61%
    18:00 +9°C° 0 mm 2 mps 711 mmHg 63%
    19:00 +8°C° 0 mm 2 mps 711 mmHg 64%
    20:00 +7°C° 0 mm 2 mps 711 mmHg 66%
    21:00 +7°C° 0 mm 2 mps 711 mmHg 66%
    22:00 +6°C° 0 mm 2 mps 710 mmHg 66%
    23:00 +6°C° 0 mm 2 mps 710 mmHg 66%

    24 February, Monday

    Time Temperature Precipitation Wind Pressure Humidity
    00:00 +6°C° 0 mm 2 mps 709 mmHg 66%
    01:00 +5°C° 0 mm 3 mps 709 mmHg 66%
    02:00 +4°C° 0 mm 3 mps 708 mmHg 66%
    03:00 +4°C° 0 mm 3 mps 708 mmHg 64%
    04:00 +5°C° 0 mm 3 mps 707 mmHg 61%
    05:00 +5°C° 0 mm 3 mps 706 mmHg 59%
    06:00 +5°C° 0 mm 3 mps 706 mmHg 59%
    07:00 +5°C° 0 mm 3 mps 706 mmHg 59%
    08:00 +6°C° 0 mm 2 mps 706 mmHg 59%
    09:00 +6°C° 0 mm 4 mps 707 mmHg 59%
    10:00 +7°C° 0 mm 5 mps 707 mmHg 60%
    11:00 +7°C° 0 mm 6 mps 708 mmHg 61%
    12:00 +8°C° 0 mm 7 mps 708 mmHg 60%
    13:00 +7°C° 0 mm 8 mps 709 mmHg 58%
    14:00 +7°C° 0 mm 8 mps 709 mmHg 57%
    15:00 +6°C° 0 mm 8 mps 710 mmHg 54%
    16:00 +5°C° 0 mm 8 mps 710 mmHg 50%
    17:00 +5°C° 0 mm 7 mps 711 mmHg 47%
    18:00 +3°C° 0 mm 6 mps 712 mmHg 50%
    19:00 +2°C° 0 mm 5 mps 712 mmHg 54%
    20:00 +2°C° 0 mm 3 mps 713 mmHg 57%
    21:00 +2°C° 0 mm 3 mps 713 mmHg 58%
    22:00 +1°C° 0 mm 3 mps 714 mmHg 59%
    23:00 +1°C° 0 mm 3 mps 714 mmHg 60%

    25 February, Tuesday

    Time Temperature Precipitation Wind Pressure Humidity
    00:00 +2°C° 0 mm 2 mps 714 mmHg 61%
    01:00 +1°C° 0 mm 2 mps 714 mmHg 62%
    02:00 +1°C° 0 mm 2 mps 714 mmHg 63%
    03:00 +1°C° 0 mm 2 mps 713 mmHg 64%
    04:00 -1°C° 0 mm 2 mps 713 mmHg 64%
    05:00 +1°C° 0 mm 1 mps 713 mmHg 65%
    06:00 +1°C° 0 mm 1 mps 712 mmHg 64%
    07:00 +2°C° 0 mm 1 mps 712 mmHg 62%
    08:00 +2°C° 0 mm 1 mps 712 mmHg 61%
    09:00 +4°C° 0 mm 1 mps 712 mmHg 54%
    10:00 +6°C° 0 mm 1 mps 712 mmHg 46%
    11:00 +8°C° 0 mm 1 mps 712 mmHg 38%
    12:00 +9°C° 0 mm 1 mps 711 mmHg 36%
    13:00 +9°C° 0 mm 2 mps 711 mmHg 33%
    14:00 +10°C° 0 mm 2 mps 710 mmHg 30%
    15:00 +10°C° 0 mm 2 mps 710 mmHg 34%
    16:00 +10°C° 0 mm 2 mps 709 mmHg 38%
    17:00 +9°C° 0 mm 2 mps 708 mmHg 42%
    18:00 +8°C° 0 mm 2 mps 708 mmHg 45%
    19:00 +7°C° 0 mm 2 mps 707 mmHg 48%
    20:00 +6°C° 0 mm 2 mps 707 mmHg 51%
    21:00 +5°C° 0 mm 2 mps 707 mmHg 53%
    22:00 +5°C° 0 mm 2 mps 707 mmHg 55%
    23:00 +4°C° 0 mm 2 mps 707 mmHg 57%

    26 February, Wednesday

    Time Temperature Precipitation Wind Pressure Humidity
    00:00 +4°C° 0 mm 2 mps 706 mmHg 58%
    01:00 +4°C° 0 mm 2 mps 706 mmHg 60%
    02:00 +4°C° 0 mm 2 mps 705 mmHg 61%
    03:00 +4°C° 0 mm 2 mps 705 mmHg 62%
    04:00 +4°C° 0 mm 2 mps 704 mmHg 63%
    05:00 +3°C° 0 mm 2 mps 704 mmHg 64%
    06:00 +4°C° 0 mm 2 mps 704 mmHg 65%
    07:00 +4°C° 0 mm 2 mps 703 mmHg 66%
    08:00 +4°C° 0 mm 2 mps 703 mmHg 67%
    09:00 +6°C° 0 mm 2 mps 703 mmHg 63%
    10:00 +8°C° 0 mm 2 mps 703 mmHg 58%
    11:00 +10°C° 0 mm 2 mps 703 mmHg 54%
    12:00 +12°C° 0 mm 2 mps 703 mmHg 52%
    13:00 +12°C° 0 mm 3 mps 702 mmHg 50%
    14:00 +13°C° 0 mm 3 mps 702 mmHg 49%
    15:00 +14°C° 0 mm 2 mps 702 mmHg 52%
    16:00 +13°C° 0 mm 2 mps 701 mmHg 55%
    17:00 +13°C° 0 mm 2 mps 701 mmHg 58%
    18:00 +10°C° 0 mm 2 mps 701 mmHg 62%
    19:00 +10°C° 0 mm 1 mps 701 mmHg 67%
    20:00 +9°C° 0 mm 1 mps 701 mmHg 71%
    21:00 +8°C° 0 mm 1 mps 701 mmHg 74%
    22:00 +8°C° 0 mm 1 mps 701 mmHg 77%
    23:00 +7°C° 0 mm 1 mps 700 mmHg 81%
    Show more